User: anonymous   Login
Location: Unspecified
(0.0000°N, 0.0000°E)
Time: 21:47:53
(UTC+00:00)
Language:

Explorer 11/Cluster Stage 4 - Orbit

View from above orbital plane
View from above orbital plane
View from above satellite
View from above satellite

Ground track
Ground track

The orbit data is extracted from the following two-line orbital elements,

1 00107U 61013A   15243.56110935  .00001205  00000-0  14299-3 0  9990
2 00107 028.7926 346.5623 0553968 288.5252 184.5992 14.07178926718606
Epoch (UTC): 31 August 2015 13:27:59
Eccentricity: 0.0553968
inclination: 28.7926°
perigee height: 467 km
apogee height: 1270 km
right ascension of ascending node: 346.5623°
argument of perigee: 288.5252°
revolutions per day: 14.07178926
mean anomaly at epoch: 184.5992°
orbit number at epoch: 71860

The dashed part of the orbit path shows where the satellite is in the earth's shadow,  

DLR